Time,TemperatureF,DewpointF,PressureIn,WindDirection,WindDirectionDegrees,WindSpeedMPH,WindSpeedGustMPH,Humidity,HourlyPrecipIn,Conditions,Clouds,dailyrainin,SoftwareType,DateUTC
2013-12-16 00:02:00,30.8,28.0,30.05,South,180,0.0,4.0,89,0.00,,---,0.00,VWS V14.01,2013-12-16 06:02:00,
2013-12-16 00:07:00,30.9,28.0,30.05,South,171,0.0,4.0,89,0.00,,---,0.00,VWS V14.01,2013-12-16 06:07:00,
2013-12-16 00:12:00,31.0,28.1,30.05,South,174,0.0,7.0,89,0.00,,---,0.00,VWS V14.01,2013-12-16 06:12:00,
2013-12-16 00:17:00,31.0,28.1,30.04,SSE,163,0.0,7.0,89,0.00,,---,0.00,VWS V14.01,2013-12-16 06:17:00,
2013-12-16 00:22:00,31.1,28.0,30.04,South,178,0.0,7.0,88,0.00,,---,0.00,VWS V14.01,2013-12-16 06:22:00,
2013-12-16 00:27:00,31.1,28.0,30.04,SSW,212,1.0,7.0,88,0.00,,---,0.00,VWS V14.01,2013-12-16 06:27:00,
2013-12-16 00:32:00,31.2,28.1,30.03,South,175,0.0,7.0,88,0.00,,---,0.00,VWS V14.01,2013-12-16 06:32:00,
2013-12-16 00:37:00,31.2,28.1,30.03,South,175,0.0,0.0,88,0.00,,---,0.00,VWS V14.01,2013-12-16 06:37:00,
2013-12-16 00:42:00,31.3,28.2,30.03,SW,223,0.0,4.0,88,0.00,,---,0.00,VWS V14.01,2013-12-16 06:42:00,
2013-12-16 00:47:00,31.3,28.2,30.04,SW,225,0.0,4.0,88,0.00,,---,0.00,VWS V14.01,2013-12-16 06:47:00,
2013-12-16 00:52:00,31.4,28.5,30.04,South,191,0.0,4.0,89,0.00,,---,0.00,VWS V14.01,2013-12-16 06:52:00,
2013-12-16 00:57:00,31.4,28.5,30.04,South,174,0.0,4.0,89,0.00,,---,0.00,VWS V14.01,2013-12-16 06:57:00,
2013-12-16 01:02:00,31.5,28.4,30.03,South,180,0.0,4.0,88,0.00,,---,0.00,VWS V14.01,2013-12-16 07:02:00,
2013-12-16 01:07:00,31.5,28.4,30.03,SSW,193,0.0,3.0,88,0.00,,---,0.00,VWS V14.01,2013-12-16 07:07:00,
2013-12-16 01:12:00,31.6,28.5,30.03,SSE,160,3.0,6.0,88,0.00,,---,0.00,VWS V14.01,2013-12-16 07:12:00,
2013-12-16 01:17:00,31.7,28.6,30.02,SSW,205,0.0,7.0,88,0.00,,---,0.00,VWS V14.01,2013-12-16 07:17:00,
2013-12-16 01:22:00,31.9,28.8,30.02,SSW,199,1.0,7.0,88,0.00,,---,0.00,VWS V14.01,2013-12-16 07:22:00,
2013-12-16 01:27:00,32.0,28.9,30.02,SW,232,3.0,7.0,88,0.00,,---,0.00,VWS V14.01,2013-12-16 07:27:00,
2013-12-16 01:32:00,32.0,28.9,30.02,SSW,211,1.0,7.0,88,0.00,,---,0.00,VWS V14.01,2013-12-16 07:32:00,
2013-12-16 01:37:00,32.1,29.0,30.02,SSW,211,0.0,4.0,88,0.00,,---,0.00,VWS V14.01,2013-12-16 07:37:00,
2013-12-16 01:42:00,32.2,29.0,30.02,SSW,211,0.0,4.0,88,0.00,,---,0.00,VWS V14.01,2013-12-16 07:42:00,
2013-12-16 01:47:00,32.3,29.1,30.02,SSW,198,0.0,5.0,88,0.00,,---,0.00,VWS V14.01,2013-12-16 07:47:00,
2013-12-16 01:52:00,32.4,29.2,30.02,SW,227,0.0,5.0,88,0.00,,---,0.00,VWS V14.01,2013-12-16 07:52:00,
2013-12-16 01:57:00,32.7,29.5,30.02,SSW,209,2.0,9.0,88,0.00,,---,0.00,VWS V14.01,2013-12-16 07:57:00,
2013-12-16 02:02:00,32.9,29.7,30.03,SW,215,3.0,9.0,88,0.00,,---,0.00,VWS V14.01,2013-12-16 08:02:00,
2013-12-16 02:07:00,33.0,29.6,30.03,WSW,248,0.0,6.0,87,0.00,,---,0.00,VWS V14.01,2013-12-16 08:07:00,
2013-12-16 02:12:00,33.2,29.8,30.03,SSW,194,2.0,6.0,87,0.00,,---,0.00,VWS V14.01,2013-12-16 08:12:00,
2013-12-16 02:17:00,33.4,30.0,30.03,SSE,157,0.0,7.0,87,0.00,,---,0.00,VWS V14.01,2013-12-16 08:17:00,
2013-12-16 02:22:00,33.8,30.4,30.03,SSW,209,0.0,7.0,87,0.00,,---,0.00,VWS V14.01,2013-12-16 08:22:00,
2013-12-16 02:27:00,34.1,30.4,30.03,WSW,243,4.0,7.0,86,0.00,,---,0.00,VWS V14.01,2013-12-16 08:27:00,
2013-12-16 02:32:00,34.4,30.6,30.03,SW,220,0.0,7.0,86,0.00,,---,0.00,VWS V14.01,2013-12-16 08:32:00,
2013-12-16 02:37:00,34.3,30.3,30.03,SW,220,0.0,4.0,85,0.00,,---,0.00,VWS V14.01,2013-12-16 08:37:00,
2013-12-16 02:42:00,34.2,30.2,30.03,SSW,211,0.0,5.0,85,0.00,,---,0.00,VWS V14.01,2013-12-16 08:42:00,
2013-12-16 02:47:00,34.1,30.1,30.02,South,183,0.0,5.0,85,0.00,,---,0.00,VWS V14.01,2013-12-16 08:47:00,
2013-12-16 02:52:00,34.0,30.0,30.02,SSW,203,0.0,5.0,85,0.00,,---,0.00,VWS V14.01,2013-12-16 08:52:00,
2013-12-16 02:57:00,33.9,30.2,30.02,South,179,0.0,6.0,86,0.00,,---,0.00,VWS V14.01,2013-12-16 08:57:00,
2013-12-16 03:02:00,33.8,30.1,30.01,South,175,4.0,7.0,86,0.00,,---,0.00,VWS V14.01,2013-12-16 09:02:00,
2013-12-16 03:07:00,33.8,30.1,30.01,SW,234,0.0,7.0,86,0.00,,---,0.00,VWS V14.01,2013-12-16 09:07:00,
2013-12-16 03:12:00,33.7,30.0,30.01,SSE,163,0.0,7.0,86,0.00,,---,0.00,VWS V14.01,2013-12-16 09:12:00,
2013-12-16 03:17:00,33.7,30.0,30.00,SSE,166,0.0,7.0,86,0.00,,---,0.00,VWS V14.01,2013-12-16 09:17:00,
2013-12-16 03:22:00,33.7,30.0,30.00,SSE,150,2.0,7.0,86,0.00,,---,0.00,VWS V14.01,2013-12-16 09:22:00,
2013-12-16 03:27:00,33.8,30.4,30.00,SSW,202,0.0,7.0,87,0.00,,---,0.00,VWS V14.01,2013-12-16 09:27:00,
2013-12-16 03:32:00,33.9,30.2,30.00,South,181,0.0,7.0,86,0.00,,---,0.00,VWS V14.01,2013-12-16 09:32:00,
2013-12-16 03:37:00,34.0,30.5,30.00,SW,225,0.0,5.0,87,0.00,,---,0.00,VWS V14.01,2013-12-16 09:37:00,
2013-12-16 03:42:00,34.1,30.6,30.00,SSE,167,0.0,5.0,87,0.00,,---,0.00,VWS V14.01,2013-12-16 09:42:00,
2013-12-16 03:47:00,34.1,30.4,30.00,South,173,0.0,5.0,86,0.00,,---,0.00,VWS V14.01,2013-12-16 09:47:00,
2013-12-16 03:52:00,34.3,30.6,30.00,SSW,205,0.0,5.0,86,0.00,,---,0.00,VWS V14.01,2013-12-16 09:52:00,
2013-12-16 03:57:00,34.4,30.6,30.00,South,173,0.0,5.0,86,0.00,,---,0.00,VWS V14.01,2013-12-16 09:57:00,
2013-12-16 04:02:00,34.4,30.6,29.99,South,175,0.0,5.0,86,0.00,,---,0.00,VWS V14.01,2013-12-16 10:02:00,
2013-12-16 04:07:00,34.4,30.6,29.99,South,169,1.0,5.0,86,0.00,,---,0.00,VWS V14.01,2013-12-16 10:07:00,
2013-12-16 04:12:00,34.4,30.6,29.99,SE,146,0.0,5.0,86,0.00,,---,0.00,VWS V14.01,2013-12-16 10:12:00,
2013-12-16 04:17:00,34.4,30.6,29.99,SSW,207,0.0,5.0,86,0.00,,---,0.00,VWS V14.01,2013-12-16 10:17:00,
2013-12-16 04:22:00,34.4,30.6,29.99,SSE,149,3.0,5.0,86,0.00,,---,0.00,VWS V14.01,2013-12-16 10:22:00,
2013-12-16 04:27:00,34.4,30.6,29.99,SW,221,2.0,7.0,86,0.00,,---,0.00,VWS V14.01,2013-12-16 10:27:00,
2013-12-16 04:32:00,34.4,30.6,29.98,South,173,1.0,7.0,86,0.00,,---,0.00,VWS V14.01,2013-12-16 10:32:00,
2013-12-16 04:37:00,34.4,30.6,29.98,South,175,2.0,5.0,86,0.00,,---,0.00,VWS V14.01,2013-12-16 10:37:00,
2013-12-16 04:42:00,34.4,30.4,29.98,SSE,148,0.0,5.0,85,0.00,,---,0.00,VWS V14.01,2013-12-16 10:42:00,
2013-12-16 04:47:00,34.4,30.4,29.98,SSE,150,2.0,9.0,85,0.00,,---,0.00,VWS V14.01,2013-12-16 10:47:00,
2013-12-16 04:52:00,34.4,30.4,29.98,South,175,0.0,9.0,85,0.00,,---,0.00,VWS V14.01,2013-12-16 10:52:00,
2013-12-16 04:57:00,34.3,30.3,29.98,SSE,163,1.0,9.0,85,0.00,,---,0.00,VWS V14.01,2013-12-16 10:57:00,
2013-12-16 05:02:00,34.1,30.4,29.98,SSE,153,0.0,9.0,86,0.00,,---,0.00,VWS V14.01,2013-12-16 11:02:00,
2013-12-16 05:07:00,33.9,29.9,29.98,South,178,0.0,2.0,85,0.00,,---,0.00,VWS V14.01,2013-12-16 11:07:00,
2013-12-16 05:12:00,33.8,30.1,29.98,SSW,197,0.0,6.0,86,0.00,,---,0.00,VWS V14.01,2013-12-16 11:12:00,
2013-12-16 05:17:00,33.8,30.1,29.98,South,184,0.0,6.0,86,0.00,,---,0.00,VWS V14.01,2013-12-16 11:17:00,
2013-12-16 05:22:00,33.8,30.1,29.98,SSW,200,0.0,6.0,86,0.00,,---,0.00,VWS V14.01,2013-12-16 11:22:00,
2013-12-16 05:27:00,33.7,30.0,29.98,SSE,165,0.0,6.0,86,0.00,,---,0.00,VWS V14.01,2013-12-16 11:27:00,
2013-12-16 05:32:00,33.6,29.9,29.98,SSW,204,0.0,6.0,86,0.00,,---,0.00,VWS V14.01,2013-12-16 11:32:00,
2013-12-16 05:37:00,33.5,29.8,29.98,SSW,194,2.0,3.0,86,0.00,,---,0.00,VWS V14.01,2013-12-16 11:37:00,
2013-12-16 05:42:00,33.5,30.0,29.98,SSE,168,0.0,4.0,87,0.00,,---,0.00,VWS V14.01,2013-12-16 11:42:00,
2013-12-16 05:47:00,33.5,30.0,29.98,SSW,194,0.0,4.0,87,0.00,,---,0.00,VWS V14.01,2013-12-16 11:47:00,
2013-12-16 05:52:00,33.6,30.1,29.98,ESE,111,1.0,4.0,87,0.00,,---,0.00,VWS V14.01,2013-12-16 11:52:00,
2013-12-16 05:57:00,33.6,30.1,29.98,South,174,0.0,4.0,87,0.00,,---,0.00,VWS V14.01,2013-12-16 11:57:00,
2013-12-16 06:02:00,33.5,30.0,29.98,SSE,160,0.0,4.0,87,0.00,,---,0.00,VWS V14.01,2013-12-16 12:02:00,
2013-12-16 06:07:00,33.4,30.0,29.98,South,182,1.0,2.0,87,0.00,,---,0.00,VWS V14.01,2013-12-16 12:07:00,
2013-12-16 06:12:00,33.3,29.9,29.98,South,182,0.0,2.0,87,0.00,,---,0.00,VWS V14.01,2013-12-16 12:12:00,
2013-12-16 06:17:00,33.2,29.8,29.99,South,182,0.0,2.0,87,0.00,,---,0.00,VWS V14.01,2013-12-16 12:17:00,
2013-12-16 06:22:00,33.1,29.7,29.99,South,182,3.0,5.0,87,0.00,,---,0.00,VWS V14.01,2013-12-16 12:22:00,
2013-12-16 06:27:00,33.1,29.7,29.99,South,173,0.0,5.0,87,0.00,,---,0.00,VWS V14.01,2013-12-16 12:27:00,
2013-12-16 06:32:00,33.1,29.7,29.99,South,171,0.0,5.0,87,0.00,,---,0.00,VWS V14.01,2013-12-16 12:32:00,
2013-12-16 06:37:00,33.1,29.7,29.99,South,185,1.0,3.0,87,0.00,,---,0.00,VWS V14.01,2013-12-16 12:37:00,
2013-12-16 06:42:00,33.1,29.7,29.99,South,176,0.0,3.0,87,0.00,,---,0.00,VWS V14.01,2013-12-16 12:42:00,
2013-12-16 06:47:00,33.0,29.6,29.99,SSW,194,0.0,4.0,87,0.00,,---,0.00,VWS V14.01,2013-12-16 12:47:00,
2013-12-16 06:52:00,33.0,29.6,29.99,SSW,211,0.0,5.0,87,0.00,,---,0.00,VWS V14.01,2013-12-16 12:52:00,
2013-12-16 06:57:00,33.0,29.6,29.99,SSW,210,0.0,5.0,87,0.00,,---,0.00,VWS V14.01,2013-12-16 12:57:00,
2013-12-16 07:02:00,33.0,29.6,29.99,SSE,163,1.0,5.0,87,0.00,,---,0.00,VWS V14.01,2013-12-16 13:02:00,
2013-12-16 07:07:00,33.0,29.6,29.99,South,175,0.0,3.0,87,0.00,,---,0.00,VWS V14.01,2013-12-16 13:07:00,
2013-12-16 07:12:00,33.0,29.6,29.99,SW,221,0.0,3.0,87,0.00,,---,0.00,VWS V14.01,2013-12-16 13:12:00,
2013-12-16 07:17:00,33.0,29.6,29.99,SW,215,2.0,5.0,87,0.00,,---,0.00,VWS V14.01,2013-12-16 13:17:00,
2013-12-16 07:22:00,33.1,29.9,29.99,South,170,0.0,5.0,88,0.00,,---,0.00,VWS V14.01,2013-12-16 13:22:00,
2013-12-16 07:27:00,33.2,30.0,29.99,South,189,0.0,5.0,88,0.00,,---,0.00,VWS V14.01,2013-12-16 13:27:00,
2013-12-16 07:32:00,33.4,30.2,30.00,South,169,0.0,5.0,88,0.00,,---,0.00,VWS V14.01,2013-12-16 13:32:00,
2013-12-16 07:37:00,33.6,30.1,30.00,SW,217,0.0,2.0,87,0.00,,---,0.00,VWS V14.01,2013-12-16 13:37:00,
2013-12-16 07:42:00,33.9,30.5,30.00,South,187,8.0,8.0,87,0.00,,---,0.00,VWS V14.01,2013-12-16 13:42:00,
2013-12-16 07:47:00,34.1,30.6,30.00,SW,225,1.0,8.0,87,0.00,,---,0.00,VWS V14.01,2013-12-16 13:47:00,
2013-12-16 07:52:00,34.2,30.7,30.00,SW,227,5.0,8.0,87,0.00,,---,0.00,VWS V14.01,2013-12-16 13:52:00,
2013-12-16 07:57:00,34.4,30.6,30.00,SSE,165,0.0,8.0,86,0.00,,---,0.00,VWS V14.01,2013-12-16 13:57:00,
2013-12-16 08:02:00,34.4,30.6,30.00,SW,221,0.0,8.0,86,0.00,,---,0.00,VWS V14.01,2013-12-16 14:02:00,
2013-12-16 08:07:00,34.8,31.0,30.00,SW,233,5.0,7.0,86,0.00,,---,0.00,VWS V14.01,2013-12-16 14:07:00,
2013-12-16 08:12:00,35.1,31.0,30.00,SW,217,0.0,7.0,85,0.00,,---,0.00,VWS V14.01,2013-12-16 14:12:00,
2013-12-16 08:17:00,35.4,31.4,30.01,SW,229,3.0,7.0,85,0.00,,---,0.00,VWS V14.01,2013-12-16 14:17:00,
2013-12-16 08:22:00,35.6,31.5,30.01,SW,215,2.0,7.0,85,0.00,,---,0.00,VWS V14.01,2013-12-16 14:22:00,
2013-12-16 08:27:00,35.9,31.5,30.01,SSW,194,0.0,7.0,84,0.00,,---,0.00,VWS V14.01,2013-12-16 14:27:00,
2013-12-16 08:32:00,36.1,31.7,30.01,SSW,210,0.0,7.0,84,0.00,,---,0.00,VWS V14.01,2013-12-16 14:32:00,
2013-12-16 08:37:00,36.3,31.9,30.01,SSW,207,0.0,9.0,84,0.00,,---,0.00,VWS V14.01,2013-12-16 14:37:00,
2013-12-16 08:42:00,36.6,32.2,30.01,WSW,248,7.0,9.0,84,0.00,,---,0.00,VWS V14.01,2013-12-16 14:42:00,
2013-12-16 08:47:00,37.0,32.3,30.01,WSW,238,3.0,9.0,83,0.00,,---,0.00,VWS V14.01,2013-12-16 14:47:00,
2013-12-16 08:52:00,37.4,32.7,30.01,SSW,209,7.0,9.0,83,0.00,,---,0.00,VWS V14.01,2013-12-16 14:52:00,
2013-12-16 08:57:00,37.9,32.9,30.01,WSW,245,0.0,9.0,82,0.01,,---,0.01,VWS V14.01,2013-12-16 14:57:00,
2013-12-16 09:02:00,38.4,33.4,30.01,WSW,246,0.0,9.0,82,0.01,,---,0.01,VWS V14.01,2013-12-16 15:02:00,
2013-12-16 09:07:00,38.9,33.6,30.01,SW,221,4.0,6.0,81,0.01,,---,0.01,VWS V14.01,2013-12-16 15:07:00,
2013-12-16 09:12:00,39.3,33.7,30.01,SW,232,3.0,6.0,80,0.01,,---,0.01,VWS V14.01,2013-12-16 15:12:00,
2013-12-16 09:17:00,39.7,33.7,30.01,WSW,257,6.0,9.0,79,0.01,,---,0.01,VWS V14.01,2013-12-16 15:17:00,
2013-12-16 09:22:00,40.0,33.7,30.01,WSW,248,10.0,10.0,78,0.01,,---,0.01,VWS V14.01,2013-12-16 15:22:00,
2013-12-16 09:27:00,40.3,34.0,30.01,West,271,7.0,10.0,78,0.01,,---,0.01,VWS V14.01,2013-12-16 15:27:00,
2013-12-16 09:32:00,40.5,34.2,30.02,SW,227,6.0,10.0,78,0.01,,---,0.01,VWS V14.01,2013-12-16 15:32:00,
2013-12-16 09:37:00,40.8,34.5,30.02,SW,231,0.0,6.0,78,0.01,,---,0.01,VWS V14.01,2013-12-16 15:37:00,
2013-12-16 09:42:00,41.1,34.5,30.02,WSW,239,5.0,10.0,77,0.01,,---,0.01,VWS V14.01,2013-12-16 15:42:00,
2013-12-16 09:47:00,41.5,34.8,30.01,SW,225,5.0,10.0,77,0.01,,---,0.01,VWS V14.01,2013-12-16 15:47:00,
2013-12-16 09:52:00,41.8,34.8,30.01,SW,229,3.0,11.0,76,0.01,,---,0.01,VWS V14.01,2013-12-16 15:52:00,
2013-12-16 09:57:00,42.2,34.9,30.01,SSW,205,3.0,11.0,75,0.01,,---,0.01,VWS V14.01,2013-12-16 15:57:00,
2013-12-16 10:02:00,42.7,35.3,30.01,WSW,246,6.0,11.0,75,0.01,,---,0.01,VWS V14.01,2013-12-16 16:02:00,
2013-12-16 10:07:00,43.1,35.4,30.01,West,259,7.0,13.0,74,0.00,,---,0.01,VWS V14.01,2013-12-16 16:07:00,
2013-12-16 10:12:00,43.5,35.4,30.01,WSW,251,4.0,13.0,73,0.00,,---,0.01,VWS V14.01,2013-12-16 16:12:00,
2013-12-16 10:17:00,43.7,35.3,30.00,WSW,252,9.0,13.0,72,0.00,,---,0.01,VWS V14.01,2013-12-16 16:17:00,
2013-12-16 10:22:00,44.1,36.0,30.00,West,275,9.0,13.0,73,0.00,,---,0.01,VWS V14.01,2013-12-16 16:22:00,
2013-12-16 10:27:00,44.4,36.0,30.00,West,273,10.0,13.0,72,0.00,,---,0.01,VWS V14.01,2013-12-16 16:27:00,
2013-12-16 10:32:00,44.5,35.7,30.01,West,267,6.0,14.0,71,0.00,,---,0.01,VWS V14.01,2013-12-16 16:32:00,
2013-12-16 10:37:00,44.7,36.2,30.01,West,262,10.0,11.0,72,0.00,,---,0.01,VWS V14.01,2013-12-16 16:37:00,
2013-12-16 10:42:00,45.0,36.5,30.01,SW,232,7.0,11.0,72,0.00,,---,0.01,VWS V14.01,2013-12-16 16:42:00,
2013-12-16 10:47:00,45.6,36.4,30.00,WSW,248,5.0,14.0,70,0.00,,---,0.01,VWS V14.01,2013-12-16 16:47:00,
2013-12-16 10:52:00,45.7,36.1,30.00,WSW,242,6.0,14.0,69,0.00,,---,0.01,VWS V14.01,2013-12-16 16:52:00,
2013-12-16 10:57:00,45.7,36.5,30.00,WNW,291,9.0,14.0,70,0.00,,---,0.01,VWS V14.01,2013-12-16 16:57:00,
2013-12-16 11:02:00,45.8,36.6,29.99,West,274,4.0,14.0,70,0.00,,---,0.01,VWS V14.01,2013-12-16 17:02:00,
2013-12-16 11:07:00,46.2,37.0,29.99,SW,224,9.0,11.0,70,0.00,,---,0.01,VWS V14.01,2013-12-16 17:07:00,
2013-12-16 11:12:00,46.5,36.5,29.99,WSW,254,7.0,13.0,68,0.00,,---,0.01,VWS V14.01,2013-12-16 17:12:00,
2013-12-16 11:17:00,46.9,36.9,29.99,WSW,244,4.0,13.0,68,0.00,,---,0.01,VWS V14.01,2013-12-16 17:17:00,
2013-12-16 11:22:00,47.2,37.2,29.99,WSW,249,5.0,13.0,68,0.00,,---,0.01,VWS V14.01,2013-12-16 17:22:00,
2013-12-16 11:27:00,47.3,36.9,29.99,SSW,210,6.0,13.0,67,0.00,,---,0.01,VWS V14.01,2013-12-16 17:27:00,
2013-12-16 11:32:00,47.4,36.6,29.98,SW,236,5.0,13.0,66,0.00,,---,0.01,VWS V14.01,2013-12-16 17:32:00,
2013-12-16 11:37:00,47.2,36.8,29.98,WSW,258,5.0,12.0,67,0.00,,---,0.01,VWS V14.01,2013-12-16 17:37:00,
2013-12-16 11:42:00,47.5,37.5,29.98,WSW,258,6.0,12.0,68,0.00,,---,0.01,VWS V14.01,2013-12-16 17:42:00,
2013-12-16 11:47:00,47.7,37.3,29.98,WSW,243,5.0,12.0,67,0.00,,---,0.01,VWS V14.01,2013-12-16 17:47:00,
2013-12-16 11:52:00,48.2,37.8,29.98,West,265,3.0,12.0,67,0.00,,---,0.01,VWS V14.01,2013-12-16 17:52:00,
2013-12-16 11:57:00,48.8,37.6,29.98,WSW,238,6.0,12.0,65,0.00,,---,0.01,VWS V14.01,2013-12-16 17:57:00,
2013-12-16 12:02:00,48.8,37.2,29.97,SSW,211,9.0,13.0,64,0.00,,---,0.01,VWS V14.01,2013-12-16 18:02:00,
2013-12-16 12:07:00,48.9,36.9,29.97,WSW,241,6.0,12.0,63,0.00,,---,0.01,VWS V14.01,2013-12-16 18:07:00,
2013-12-16 12:12:00,48.9,36.9,29.97,SSW,213,5.0,13.0,63,0.00,,---,0.01,VWS V14.01,2013-12-16 18:12:00,
2013-12-16 12:17:00,49.2,37.2,29.97,WSW,252,5.0,14.0,63,0.00,,---,0.01,VWS V14.01,2013-12-16 18:17:00,
2013-12-16 12:22:00,49.3,37.7,29.97,WSW,255,4.0,14.0,64,0.00,,---,0.01,VWS V14.01,2013-12-16 18:22:00,
2013-12-16 12:27:00,49.6,37.9,29.97,WSW,238,9.0,14.0,64,0.00,,---,0.01,VWS V14.01,2013-12-16 18:27:00,
2013-12-16 12:32:00,49.7,37.2,29.96,WSW,250,7.0,14.0,62,0.00,,---,0.01,VWS V14.01,2013-12-16 18:32:00,
2013-12-16 12:37:00,49.7,37.2,29.96,WSW,237,6.0,13.0,62,0.00,,---,0.01,VWS V14.01,2013-12-16 18:37:00,
2013-12-16 12:42:00,49.6,37.1,29.96,WSW,250,6.0,13.0,62,0.00,,---,0.01,VWS V14.01,2013-12-16 18:42:00,
2013-12-16 12:47:00,49.9,37.8,29.95,West,278,6.0,13.0,63,0.00,,---,0.01,VWS V14.01,2013-12-16 18:47:00,
2013-12-16 12:52:00,50.5,38.0,29.95,SW,227,6.0,13.0,62,0.00,,---,0.01,VWS V14.01,2013-12-16 18:52:00,
2013-12-16 12:57:00,50.7,37.3,29.95,WSW,253,5.0,14.0,60,0.00,,---,0.01,VWS V14.01,2013-12-16 18:57:00,
2013-12-16 13:02:00,50.9,37.5,29.94,WSW,238,4.0,16.0,60,0.00,,---,0.01,VWS V14.01,2013-12-16 19:02:00,
2013-12-16 13:07:00,51.2,38.2,29.94,SW,222,4.0,14.0,61,0.00,,---,0.01,VWS V14.01,2013-12-16 19:07:00,
2013-12-16 13:12:00,51.7,38.3,29.94,West,270,7.0,14.0,60,0.00,,---,0.01,VWS V14.01,2013-12-16 19:12:00,
2013-12-16 13:17:00,51.7,37.8,29.94,West,265,5.0,14.0,59,0.00,,---,0.01,VWS V14.01,2013-12-16 19:17:00,
2013-12-16 13:22:00,51.7,38.3,29.94,West,270,6.0,17.0,60,0.00,,---,0.01,VWS V14.01,2013-12-16 19:22:00,
2013-12-16 13:27:00,52.0,38.6,29.94,WNW,287,12.0,17.0,60,0.00,,---,0.01,VWS V14.01,2013-12-16 19:27:00,
2013-12-16 13:32:00,52.4,38.1,29.94,West,263,7.0,17.0,58,0.00,,---,0.01,VWS V14.01,2013-12-16 19:32:00,
2013-12-16 13:37:00,52.3,38.4,29.94,West,267,6.0,15.0,59,0.00,,---,0.01,VWS V14.01,2013-12-16 19:37:00,
2013-12-16 13:42:00,52.3,38.0,29.94,WSW,244,8.0,15.0,58,0.00,,---,0.01,VWS V14.01,2013-12-16 19:42:00,
2013-12-16 13:47:00,52.6,38.3,29.93,WSW,254,3.0,15.0,58,0.00,,---,0.01,VWS V14.01,2013-12-16 19:47:00,
2013-12-16 13:52:00,52.9,37.7,29.93,WNW,294,7.0,15.0,56,0.00,,---,0.01,VWS V14.01,2013-12-16 19:52:00,
2013-12-16 13:57:00,52.9,38.1,29.93,West,265,9.0,15.0,57,0.00,,---,0.01,VWS V14.01,2013-12-16 19:57:00,
2013-12-16 14:02:00,53.0,37.7,29.93,WNW,289,6.0,15.0,56,0.00,,---,0.01,VWS V14.01,2013-12-16 20:02:00,
2013-12-16 14:07:00,53.2,38.4,29.93,WNW,286,5.0,13.0,57,0.00,,---,0.01,VWS V14.01,2013-12-16 20:07:00,
2013-12-16 14:12:00,53.4,38.1,29.93,SW,236,9.0,13.0,56,0.00,,---,0.01,VWS V14.01,2013-12-16 20:12:00,
2013-12-16 14:17:00,53.4,38.1,29.94,West,263,5.0,13.0,56,0.00,,---,0.01,VWS V14.01,2013-12-16 20:17:00,
2013-12-16 14:22:00,53.3,37.6,29.94,West,279,9.0,13.0,55,0.00,,---,0.01,VWS V14.01,2013-12-16 20:22:00,
2013-12-16 14:27:00,53.4,37.7,29.94,WSW,240,10.0,13.0,55,0.00,,---,0.01,VWS V14.01,2013-12-16 20:27:00,
2013-12-16 14:32:00,53.4,37.7,29.94,SW,236,5.0,13.0,55,0.00,,---,0.01,VWS V14.01,2013-12-16 20:32:00,
2013-12-16 14:37:00,53.4,37.7,29.94,West,271,5.0,10.0,55,0.00,,---,0.01,VWS V14.01,2013-12-16 20:37:00,
2013-12-16 14:42:00,53.4,37.7,29.94,SW,234,7.0,10.0,55,0.00,,---,0.01,VWS V14.01,2013-12-16 20:42:00,
2013-12-16 14:47:00,53.2,37.9,29.93,West,262,4.0,15.0,56,0.00,,---,0.01,VWS V14.01,2013-12-16 20:47:00,
2013-12-16 14:52:00,53.0,37.7,29.93,WNW,293,8.0,15.0,56,0.00,,---,0.01,VWS V14.01,2013-12-16 20:52:00,
2013-12-16 14:57:00,53.0,37.7,29.93,West,268,4.0,15.0,56,0.00,,---,0.01,VWS V14.01,2013-12-16 20:57:00,
2013-12-16 15:02:00,53.1,37.8,29.94,WSW,243,7.0,15.0,56,0.00,,---,0.01,VWS V14.01,2013-12-16 21:02:00,
2013-12-16 15:07:00,53.2,37.9,29.94,WSW,248,2.0,7.0,56,0.00,,---,0.01,VWS V14.01,2013-12-16 21:07:00,
2013-12-16 15:12:00,53.3,38.0,29.94,South,188,2.0,7.0,56,0.00,,---,0.01,VWS V14.01,2013-12-16 21:12:00,
2013-12-16 15:17:00,53.4,38.1,29.94,WSW,245,4.0,7.0,56,0.00,,---,0.01,VWS V14.01,2013-12-16 21:17:00,
2013-12-16 15:22:00,53.3,38.0,29.94,WSW,243,6.0,7.0,56,0.00,,---,0.01,VWS V14.01,2013-12-16 21:22:00,
2013-12-16 15:27:00,53.2,38.4,29.94,WSW,256,0.0,7.0,57,0.00,,---,0.01,VWS V14.01,2013-12-16 21:27:00,
2013-12-16 15:32:00,53.4,38.6,29.94,West,268,4.0,7.0,57,0.00,,---,0.01,VWS V14.01,2013-12-16 21:32:00,
2013-12-16 15:37:00,53.5,38.7,29.94,WSW,246,3.0,4.0,57,0.00,,---,0.01,VWS V14.01,2013-12-16 21:37:00,
2013-12-16 15:42:00,53.4,38.6,29.94,West,261,0.0,4.0,57,0.00,,---,0.01,VWS V14.01,2013-12-16 21:42:00,
2013-12-16 15:47:00,53.3,38.5,29.95,WSW,244,0.0,6.0,57,0.00,,---,0.01,VWS V14.01,2013-12-16 21:47:00,
2013-12-16 15:52:00,53.2,38.8,29.95,SW,227,3.0,6.0,58,0.00,,---,0.01,VWS V14.01,2013-12-16 21:52:00,
2013-12-16 15:57:00,52.9,38.5,29.95,SSW,210,2.0,6.0,58,0.00,,---,0.01,VWS V14.01,2013-12-16 21:57:00,
2013-12-16 16:02:00,52.6,38.3,29.95,SW,229,1.0,6.0,58,0.00,,---,0.01,VWS V14.01,2013-12-16 22:02:00,
2013-12-16 16:07:00,52.5,38.6,29.95,WSW,245,5.0,5.0,59,0.00,,---,0.01,VWS V14.01,2013-12-16 22:07:00,
2013-12-16 16:12:00,52.3,38.4,29.95,SW,236,0.0,5.0,59,0.00,,---,0.01,VWS V14.01,2013-12-16 22:12:00,
2013-12-16 16:17:00,52.1,38.2,29.94,SW,229,3.0,5.0,59,0.00,,---,0.01,VWS V14.01,2013-12-16 22:17:00,
2013-12-16 16:22:00,51.7,38.3,29.94,SW,227,1.0,5.0,60,0.00,,---,0.01,VWS V14.01,2013-12-16 22:22:00,
2013-12-16 16:27:00,51.3,37.9,29.94,SW,228,0.0,5.0,60,0.00,,---,0.01,VWS V14.01,2013-12-16 22:27:00,
2013-12-16 16:32:00,50.9,38.0,29.95,WSW,252,2.0,5.0,61,0.00,,---,0.01,VWS V14.01,2013-12-16 22:32:00,
2013-12-16 16:37:00,50.6,38.1,29.95,WSW,251,0.0,4.0,62,0.00,,---,0.01,VWS V14.01,2013-12-16 22:37:00,
2013-12-16 16:42:00,50.2,37.7,29.95,WSW,249,0.0,4.0,62,0.00,,---,0.01,VWS V14.01,2013-12-16 22:42:00,
2013-12-16 16:47:00,49.9,37.8,29.96,WSW,250,0.0,4.0,63,0.00,,---,0.01,VWS V14.01,2013-12-16 22:47:00,
2013-12-16 16:52:00,49.7,38.0,29.96,WSW,250,0.0,4.0,64,0.00,,---,0.01,VWS V14.01,2013-12-16 22:52:00,
2013-12-16 16:57:00,49.4,37.8,29.96,WSW,250,0.0,4.0,64,0.00,,---,0.01,VWS V14.01,2013-12-16 22:57:00,
2013-12-16 17:02:00,49.1,37.9,29.96,WSW,250,0.0,4.0,65,0.00,,---,0.01,VWS V14.01,2013-12-16 23:02:00,
2013-12-16 17:07:00,48.7,37.5,29.96,WSW,250,0.0,0.0,65,0.00,,---,0.01,VWS V14.01,2013-12-16 23:07:00,
2013-12-16 17:12:00,48.2,37.4,29.96,WSW,250,0.0,0.0,66,0.00,,---,0.01,VWS V14.01,2013-12-16 23:12:00,
2013-12-16 17:17:00,47.8,37.0,29.96,WSW,250,0.0,1.0,66,0.00,,---,0.01,VWS V14.01,2013-12-16 23:17:00,
2013-12-16 17:22:00,47.4,37.0,29.96,WSW,250,0.0,1.0,67,0.00,,---,0.01,VWS V14.01,2013-12-16 23:22:00,
2013-12-16 17:27:00,47.1,37.1,29.96,WSW,250,0.0,1.0,68,0.00,,---,0.01,VWS V14.01,2013-12-16 23:27:00,
2013-12-16 17:32:00,46.7,36.7,29.96,WSW,250,0.0,0.0,68,0.00,,---,0.01,VWS V14.01,2013-12-16 23:32:00,
2013-12-16 17:37:00,46.1,36.9,29.96,WSW,250,0.0,0.0,70,0.00,,---,0.01,VWS V14.01,2013-12-16 23:37:00,
2013-12-16 17:42:00,45.7,36.5,29.96,WSW,250,0.0,0.0,70,0.00,,---,0.01,VWS V14.01,2013-12-16 23:42:00,
2013-12-16 17:47:00,45.5,36.7,29.96,SW,219,0.0,3.0,71,0.00,,---,0.01,VWS V14.01,2013-12-16 23:47:00,
2013-12-16 17:52:00,45.8,37.3,29.96,SW,227,0.0,5.0,72,0.00,,---,0.01,VWS V14.01,2013-12-16 23:52:00,
2013-12-16 17:57:00,46.4,37.5,29.96,SW,228,2.0,5.0,71,0.00,,---,0.01,VWS V14.01,2013-12-16 23:57:00,
2013-12-16 18:02:00,46.9,38.0,29.96,SW,231,3.0,5.0,71,0.00,,---,0.01,VWS V14.01,2013-12-17 00:02:00,
2013-12-16 18:07:00,47.1,37.8,29.96,SSW,208,0.0,4.0,70,0.00,,---,0.01,VWS V14.01,2013-12-17 00:07:00,
2013-12-16 18:12:00,47.1,37.8,29.96,SSW,208,0.0,4.0,70,0.00,,---,0.01,VWS V14.01,2013-12-17 00:12:00,
2013-12-16 18:17:00,46.9,38.0,29.95,SSW,208,0.0,4.0,71,0.00,,---,0.01,VWS V14.01,2013-12-17 00:17:00,
2013-12-16 18:22:00,46.7,37.8,29.95,SSW,213,0.0,4.0,71,0.00,,---,0.01,VWS V14.01,2013-12-17 00:22:00,
2013-12-16 18:27:00,46.7,38.2,29.95,SW,219,0.0,5.0,72,0.00,,---,0.01,VWS V14.01,2013-12-17 00:27:00,
2013-12-16 18:32:00,46.7,38.2,29.94,South,181,0.0,0.0,72,0.00,,---,0.01,VWS V14.01,2013-12-17 00:32:00,
2013-12-16 18:37:00,46.7,38.2,29.94,South,181,0.0,1.0,72,0.00,,---,0.01,VWS V14.01,2013-12-17 00:37:00,
2013-12-16 18:42:00,46.7,38.2,29.94,SW,224,0.0,5.0,72,0.00,,---,0.01,VWS V14.01,2013-12-17 00:42:00,
2013-12-16 18:47:00,46.7,38.2,29.94,SW,214,0.0,5.0,72,0.00,,---,0.01,VWS V14.01,2013-12-17 00:47:00,
2013-12-16 18:52:00,46.7,38.2,29.94,SW,217,3.0,5.0,72,0.00,,---,0.01,VWS V14.01,2013-12-17 00:52:00,
2013-12-16 18:57:00,46.7,38.2,29.94,SW,225,0.0,5.0,72,0.00,,---,0.01,VWS V14.01,2013-12-17 00:57:00,
2013-12-16 19:02:00,46.7,38.2,29.94,SW,227,2.0,2.0,72,0.00,,---,0.01,VWS V14.01,2013-12-17 01:02:00,
2013-12-16 19:07:00,46.8,38.3,29.94,SW,219,1.0,6.0,72,0.00,,---,0.01,VWS V14.01,2013-12-17 01:07:00,
2013-12-16 19:12:00,47.0,38.5,29.94,SW,218,0.0,8.0,72,0.00,,---,0.01,VWS V14.01,2013-12-17 01:12:00,
2013-12-16 19:17:00,47.0,38.5,29.94,SW,215,0.0,8.0,72,0.00,,---,0.01,VWS V14.01,2013-12-17 01:17:00,
2013-12-16 19:22:00,46.9,38.4,29.94,SW,216,0.0,8.0,72,0.00,,---,0.01,VWS V14.01,2013-12-17 01:22:00,
2013-12-16 19:25:00,46.8,38.3,29.94,SW,216,0.0,8.0,72,0.00,,---,0.01,VWS V14.01,2013-12-17 01:25:00,
2013-12-16 19:30:00,46.6,38.1,29.94,SSW,205,1.0,8.0,72,0.00,,---,0.01,VWS V14.01,2013-12-17 01:30:00,
2013-12-16 19:35:00,46.5,38.3,29.94,SW,234,0.0,3.0,73,0.00,,---,0.01,VWS V14.01,2013-12-17 01:35:00,
2013-12-16 19:40:00,46.5,38.3,29.94,SW,229,1.0,5.0,73,0.00,,---,0.01,VWS V14.01,2013-12-17 01:40:00,
2013-12-16 19:45:00,46.5,38.3,29.94,SW,231,4.0,5.0,73,0.00,,---,0.01,VWS V14.01,2013-12-17 01:45:00,
2013-12-16 19:50:00,46.7,38.2,29.95,SW,225,3.0,5.0,72,0.00,,---,0.01,VWS V14.01,2013-12-17 01:50:00,
2013-12-16 19:55:00,46.8,38.3,29.95,SW,227,1.0,5.0,72,0.00,,---,0.01,VWS V14.01,2013-12-17 01:55:00,
2013-12-16 20:00:00,47.0,38.5,29.95,South,184,5.0,7.0,72,0.00,,---,0.01,VWS V14.01,2013-12-17 02:00:00,
2013-12-16 20:05:00,47.2,38.3,29.94,SW,234,0.0,5.0,71,0.00,,---,0.01,VWS V14.01,2013-12-17 02:05:00,
2013-12-16 20:10:00,47.2,38.3,29.94,WSW,243,5.0,5.0,71,0.00,,---,0.01,VWS V14.01,2013-12-17 02:10:00,
2013-12-16 20:15:00,47.2,38.3,29.94,WSW,242,0.0,9.0,71,0.00,,---,0.01,VWS V14.01,2013-12-17 02:15:00,
2013-12-16 20:20:00,47.1,38.2,29.95,WSW,241,0.0,9.0,71,0.00,,---,0.01,VWS V14.01,2013-12-17 02:20:00,
2013-12-16 20:25:00,47.0,38.1,29.95,SSW,205,0.0,9.0,71,0.00,,---,0.01,VWS V14.01,2013-12-17 02:25:00,
2013-12-16 20:30:00,46.8,37.9,29.95,SW,225,5.0,9.0,71,0.00,,---,0.01,VWS V14.01,2013-12-17 02:30:00,
2013-12-16 20:35:00,46.9,38.0,29.95,WSW,240,3.0,5.0,71,0.00,,---,0.01,VWS V14.01,2013-12-17 02:35:00,
2013-12-16 20:40:00,47.2,38.3,29.95,SW,230,4.0,7.0,71,0.00,,---,0.01,VWS V14.01,2013-12-17 02:40:00,
2013-12-16 20:45:00,47.4,38.5,29.95,SW,231,0.0,7.0,71,0.00,,---,0.01,VWS V14.01,2013-12-17 02:45:00,
2013-12-16 20:50:00,47.4,38.1,29.96,WSW,252,6.0,7.0,70,0.00,,---,0.01,VWS V14.01,2013-12-17 02:50:00,
2013-12-16 20:55:00,47.7,38.4,29.96,WSW,240,6.0,8.0,70,0.00,,---,0.01,VWS V14.01,2013-12-17 02:55:00,
2013-12-16 21:00:00,47.8,38.5,29.96,WSW,241,5.0,8.0,70,0.00,,---,0.01,VWS V14.01,2013-12-17 03:00:00,
2013-12-16 21:05:00,47.7,38.4,29.95,WSW,243,7.0,7.0,70,0.00,,---,0.01,VWS V14.01,2013-12-17 03:05:00,
2013-12-16 21:10:00,47.8,38.5,29.95,SW,234,5.0,8.0,70,0.00,,---,0.01,VWS V14.01,2013-12-17 03:10:00,
2013-12-16 21:15:00,47.8,38.5,29.95,West,273,0.0,8.0,70,0.00,,---,0.01,VWS V14.01,2013-12-17 03:15:00,
2013-12-16 21:20:00,47.9,38.6,29.96,WSW,244,6.0,9.0,70,0.00,,---,0.01,VWS V14.01,2013-12-17 03:20:00,
2013-12-16 21:25:00,47.8,38.5,29.96,WSW,258,2.0,9.0,70,0.00,,---,0.01,VWS V14.01,2013-12-17 03:25:00,
2013-12-16 21:30:00,47.6,38.3,29.96,SW,225,4.0,9.0,70,0.00,,---,0.01,VWS V14.01,2013-12-17 03:30:00,
2013-12-16 21:35:00,47.4,38.5,29.96,SW,218,4.0,5.0,71,0.00,,---,0.01,VWS V14.01,2013-12-17 03:35:00,
2013-12-16 21:40:00,47.2,38.3,29.96,WSW,244,4.0,6.0,71,0.00,,---,0.01,VWS V14.01,2013-12-17 03:40:00,
2013-12-16 21:45:00,47.1,38.2,29.96,SW,236,4.0,6.0,71,0.00,,---,0.01,VWS V14.01,2013-12-17 03:45:00,
2013-12-16 21:50:00,47.0,38.1,29.96,SW,230,2.0,6.0,71,0.00,,---,0.01,VWS V14.01,2013-12-17 03:50:00,
2013-12-16 21:55:00,46.9,38.4,29.96,SW,235,2.0,6.0,72,0.00,,---,0.01,VWS V14.01,2013-12-17 03:55:00,
2013-12-16 22:00:00,46.8,38.3,29.96,SW,228,0.0,6.0,72,0.00,,---,0.01,VWS V14.01,2013-12-17 04:00:00,
2013-12-16 22:05:00,46.5,38.0,29.95,WSW,245,2.0,5.0,72,0.00,,---,0.01,VWS V14.01,2013-12-17 04:05:00,
2013-12-16 22:10:00,46.3,38.1,29.95,SW,236,1.0,5.0,73,0.00,,---,0.01,VWS V14.01,2013-12-17 04:10:00,
2013-12-16 22:15:00,46.1,37.9,29.95,WSW,242,4.0,5.0,73,0.00,,---,0.01,VWS V14.01,2013-12-17 04:15:00,
2013-12-16 22:20:00,46.0,37.8,29.95,SW,224,3.0,7.0,73,0.00,,---,0.01,VWS V14.01,2013-12-17 04:20:00,
2013-12-16 22:25:00,46.0,37.8,29.95,SW,215,3.0,7.0,73,0.00,,---,0.01,VWS V14.01,2013-12-17 04:25:00,
2013-12-16 22:30:00,46.0,37.8,29.95,SW,221,3.0,7.0,73,0.00,,---,0.01,VWS V14.01,2013-12-17 04:30:00,
2013-12-16 22:35:00,46.0,37.8,29.96,SW,231,1.0,7.0,73,0.00,,---,0.01,VWS V14.01,2013-12-17 04:35:00,
2013-12-16 22:40:00,46.1,37.9,29.96,WSW,238,4.0,9.0,73,0.00,,---,0.01,VWS V14.01,2013-12-17 04:40:00,
2013-12-16 22:45:00,46.0,37.8,29.96,WSW,242,3.0,9.0,73,0.00,,---,0.01,VWS V14.01,2013-12-17 04:45:00,
2013-12-16 22:50:00,46.0,38.2,29.96,West,261,3.0,9.0,74,0.00,,---,0.01,VWS V14.01,2013-12-17 04:50:00,
2013-12-16 22:55:00,46.0,38.2,29.96,SW,228,6.0,10.0,74,0.00,,---,0.01,VWS V14.01,2013-12-17 04:55:00,
2013-12-16 23:00:00,46.1,37.9,29.96,SW,225,2.0,10.0,73,0.00,,---,0.01,VWS V14.01,2013-12-17 05:00:00,
2013-12-16 23:01:00,46.1,37.9,29.96,WSW,248,5.0,10.0,73,0.00,,---,0.01,VWS V14.01,2013-12-17 05:01:00,
2013-12-16 23:06:00,45.9,38.1,29.97,WSW,241,0.0,9.0,74,0.00,,---,0.01,VWS V14.01,2013-12-17 05:06:00,
2013-12-16 23:11:00,45.8,38.0,29.97,SW,224,5.0,10.0,74,0.00,,---,0.01,VWS V14.01,2013-12-17 05:11:00,
2013-12-16 23:16:00,45.8,38.0,29.97,SW,232,5.0,10.0,74,0.00,,---,0.01,VWS V14.01,2013-12-17 05:16:00,
2013-12-16 23:21:00,45.8,38.0,29.97,WSW,256,3.0,10.0,74,0.00,,---,0.01,VWS V14.01,2013-12-17 05:21:00,
2013-12-16 23:26:00,45.8,38.0,29.97,West,269,4.0,10.0,74,0.00,,---,0.01,VWS V14.01,2013-12-17 05:26:00,
2013-12-16 23:31:00,45.8,38.0,29.96,WSW,250,6.0,10.0,74,0.00,,---,0.01,VWS V14.01,2013-12-17 05:31:00,
2013-12-16 23:36:00,45.7,37.9,29.96,WSW,246,8.0,8.0,74,0.00,,---,0.01,VWS V14.01,2013-12-17 05:36:00,
2013-12-16 23:41:00,45.7,37.9,29.96,SW,215,4.0,10.0,74,0.00,,---,0.01,VWS V14.01,2013-12-17 05:41:00,
2013-12-16 23:46:00,45.7,37.9,29.97,SW,232,4.0,10.0,74,0.00,,---,0.01,VWS V14.01,2013-12-17 05:46:00,
2013-12-16 23:51:00,45.6,37.8,29.97,West,262,4.0,10.0,74,0.00,,---,0.01,VWS V14.01,2013-12-17 05:51:00,
2013-12-16 23:56:00,45.5,38.0,29.97,WSW,242,3.0,10.0,75,0.00,,---,0.01,VWS V14.01,2013-12-17 05:56:00,